SCP
0 0 0 0 0 0 0 0 0 0 0 0 0 0 0 0 0 0 0 0 0 0 0 0 0 0 0 0 0 0 0 0 0 0 0 0 0 0
0 0 0 0 0 0 0 0 0 0 0 0 0 0 0 0 0 0 0 0 0 0 0 0 0 0 0 0 0 0 0 0 0 0 0 0 0 0
0 0 0 0 0 0 0 0 0 0 0 0 0 0 0 0 0 0 0 0 0 0 0 0 0 0 0 0 0 0 0 0 0 0 0 0 0 0
0 0 0 0 0 0 0 0 0 0 0 0 0 0 0 0 0 0 0 0 0 0 0 0 0 0 0 0 0 0 0 0 0 0 0 0 0 0
0 0 0 0 0 0 0 0 0 0 0 0 0 0 0 0 0 0 0 0 0 0 0 0 0 0 0 0 0 0 0 0 0 0 0 0 0 0
0 0 0 0 0 0 0 0 0 0 0 0 0 0 0 0 0 0 0 0 0 0 0 0 0 0 0 0 0 0 0 0 0 0 0 0 0 0
0 0 0 0 0 0 0 0 0 0 0 0 0 0 0 0 0 0 0 0 0 0 0 0 0 0 0 0 0 0 0 0 0 0 0 0 0 0
0 0 0 0 0 0 0 0 0 0 0 0 0 0 0 0 0 0 0 0 0 0 0 0 0 0 0 0 0 0 0 0 0 0 0 0 0 0
0 0 0 0 0 0 0 0 0 0 0 0 0 0 0 0 0 0 0 0 0 0 0 0 0 0 0 0 0 0 0 0 0 0 0 0 0 0
0 0 0 0 0 0 0 0 0 0 0 0 0 0 0 0 0 0 0 0 0 0 0 0 0 0 0 0 0 0 0 0 0 0 0 0 0 0
0 0 0 0 0 0 0 0 0 0 0 0 0 0 0 0 0 0 0 0 0 0 0 0 0 0 0 0 0 0 0 0 0 0 0 0 0 0
0 0 0 0 0 0 0 0 0 0 0 0 0 0 0 0 0 0 0 0 0 0 0 0 0 0 0 0 0 0 0 0 0 0 0 0 0 0
0 0 0 0 0 0 0 0 0 0 0 0 0 0 0 0 0 0 0 0 0 0 0 0 0 0 0 0 0 0 0 0 0 0 0 0 0 0
0 0 0 0 0 0 0 0 0 0 0 0 0 0 0 0 0 0 0 0 0 0 0 0 0 0 0 0 0 0 0 0 0 0 0 0 0 0
0 0 0 0 0 0 0 0 0 0 0 0 0 0 0 0 0 0 0 0 0 0 0 0 0 0 0 0 0 0 0 0 0 0 0 0 0 0
0 0 0 0 0 0 0 0 0 0 0 0 0 0 0 0 0 0 0 0 0 0 0 0 0 0 0 0 0 0 0 0 0 0 0 0 0 0
0 0 0 0 0 0 0 0 0 0 0 0 0 0 0 0 0 0 0 0 0 0 0 0 0 0 0 0 0 0 0 0 0 0 0 0 0 0
0 0 0 0 0 0 0 0 0 0 0 0 0 0 0 0 0 0 0 0 0 0 0 0 0 0 0 0 0 0 0 0 0 0 0 0 0 0
0 0 0 0 0 0 0 0 0 0 0 0 0 0 0 0 0 0 0 0 0 0 0 0 0 0 0 0 0 0 0 0 0 0 0 0 0 0
0 0 0 0 0 0 0 0 0 0 0 0 0 0 0 0 0 0 0 0 0 0 0 0 0 0 0 0 0 0 0 0 0 0 0 0 0 0
0 0 0 0 0 0 0 0 0 0 0 0 0 0 0 0 0 0 0 0 0 0 0 0 0 0 0 0 0 0 0 0 0 0 0 0 0 0
0 0 0 0 0 0 0 0 0 0 0 0 0 0 0 0 0 0 0 0 0 0 0 0 0 0 0 0 0 0 0 0 0 0 0 0 0 0
0 0 0 0 0 0 0 0 0 0 0 0 0 0 0 0 0 0 0 0 0 0 0 0 0 0 0 0 0 0 0 0 0 0 0 0 0 0
Wind_Speed
1 1 1 1 1 1 1 2 3 2 3 2 1 1 1 1 2 1 1 2 3 3 3 3 3 2 2 3 4 4 5 5 6 6 6 7 7 8
1 1 1 1 1 1 1 1 1 2 3 1 1 1 1 1 2 1 1 2 3 3 3 3 3 2 2 3 3 4 5 6 6 7 7 7 7 8
1 2 2 1 1 1 1 1 1 1 2 2 1 1 0 1 2 2 2 1 2 3 3 3 3 3 3 3 4 5 5 6 7 7 7 7 7 8
2 2 2 2 2 1 1 1 1 1 2 3 2 1 1 1 1 2 2 1 1 3 4 3 3 3 3 4 4 5 5 6 7 7 7 7 7 7
3 3 3 3 3 2 2 2 1 1 1 2 2 2 1 1 1 2 2 1 2 2 3 3 3 3 4 4 4 5 5 6 7 7 7 6 7 7
3 4 4 4 4 3 3 3 2 1 1 2 2 2 2 1 1 1 2 2 2 2 2 2 3 4 4 4 5 5 6 6 6 7 6 6 6 7
4 4 4 5 5 4 3 3 3 2 2 2 2 2 2 2 2 1 2 2 2 1 1 2 2 2 2 4 4 5 6 6 6 6 7 6 6 6
4 3 4 4 5 6 6 6 5 4 4 3 3 4 3 2 2 2 2 2 2 1 1 3 1 2 2 2 4 6 6 5 6 6 6 6 6 6
4 4 3 3 4 2 3 4 5 6 7 5 5 5 4 4 3 3 3 3 3 2 1 3 2 2 2 3 6 6 6 5 5 6 6 6 7 7
4 4 5 4 4 4 3 2 3 3 4 4 4 5 4 3 4 3 3 2 2 2 1 2 2 2 3 3 5 5 5 5 6 5 5 6 6 6
3 4 4 4 6 6 4 3 3 3 4 6 6 6 6 6 4 2 2 2 3 2 1 2 1 2 2 3 3 5 5 6 6 6 5 6 6 5
2 3 6 6 7 7 4 4 4 4 3 3 3 4 3 3 5 3 3 3 2 2 2 1 1 1 2 2 2 2 3 5 6 7 7 6 6 3
3 3 3 6 7 7 6 4 6 4 3 2 2 2 2 2 2 2 2 3 4 3 2 1 1 1 2 3 2 2 2 3 3 4 5 6 6 4
3 2 3 6 6 6 4 4 5 3 1 2 2 2 2 2 2 2 2 2 3 4 3 3 3 3 2 3 3 2 2 3 3 3 3 5 6 7
2 4 4 6 5 3 3 4 3 1 1 2 2 2 2 2 2 1 2 2 2 3 3 3 3 3 3 4 4 3 3 3 3 3 3 3 3 3
1 3 4 4 3 2 2 1 1 1 2 2 2 2 1 1 2 2 2 2 2 3 2 3 3 4 4 5 4 4 3 3 3 3 3 4 3 3
1 0 1 1 1 1 1 1 1 1 1 1 1 1 2 2 2 2 2 2 2 3 3 2 2 3 4 4 4 5 4 4 4 4 4 5 5 4
1 1 1 2 2 2 2 2 2 2 2 2 2 2 2 2 2 2 2 2 3 3 3 2 2 2 2 3 5 5 4 4 4 4 4 5 6 4
1 1 1 1 1 1 1 2 2 2 1 2 2 2 2 2 2 3 3 3 3 3 3 2 2 2 3 5 4 4 4 4 3 4 4 4 6 5
1 1 2 2 2 2 2 2 2 2 2 2 2 2 2 2 2 3 3 3 3 3 3 3 3 4 5 5 4 4 6 5 4 4 4 4 5 7
1 1 2 2 2 2 2 2 2 2 2 2 2 2 2 2 2 3 3 4 4 3 4 4 4 5 2 1 3 4 4 6 6 5 4 4 4 4
1 2 2 2 2 2 2 2 2 2 2 2 2 2 2 2 3 3 3 3 3 3 4 3 2 2 2 3 5 5 5 4 5 8 8 7 4 4
2 2 2 2 2 2 2 2 3 2 2 3 3 3 3 3 3 3 3 3 3 3 3 2 2 2 3 3 4 4 5 5 4 4 4 7 10 11
Wind_Direction
207 207 214 238 222 205 191 185 182 211 242 239 251 313 328 345 328 327 305 314 321 319 317 321 318 328 335 332 332 332 329 325 320 315 310 306 306 306
211 195 219 229 235 238 196 188 188 195 231 250 246 295 298 312 322 329 290 330 323 317 320 322 326 323 325 332 334 332 326 322 317 311 306 305 305 305
229 207 214 204 196 232 207 179 184 183 218 267 278 292 293 301 317 319 297 281 290 305 309 316 325 332 334 335 329 327 324 321 315 308 301 299 300 302
226 221 229 210 197 209 205 214 214 210 201 243 275 275 270 251 276 294 314 306 283 291 291 289 304 314 319 314 313 315 319 319 316 311 305 297 296 298
220 220 226 212 214 215 206 212 228 249 219 212 247 251 255 255 290 305 318 308 287 281 283 285 292 291 295 300 300 306 312 314 317 316 313 308 301 300
227 226 225 219 216 213 214 212 210 228 232 222 237 235 243 243 227 263 303 309 298 285 269 282 293 295 296 299 303 305 306 307 309 313 313 308 306 303
233 233 235 236 236 225 223 211 202 207 218 235 244 248 242 224 229 237 267 294 295 271 268 281 293 298 301 300 304 305 309 310 312 314 315 312 308 305
240 245 247 242 247 246 246 238 220 207 211 227 244 239 245 243 242 239 247 269 275 269 293 286 263 270 283 281 300 305 304 306 310 311 311 312 313 311
238 242 249 247 243 232 250 259 257 251 234 219 229 237 235 231 226 239 243 245 252 249 272 273 251 252 265 283 294 296 298 301 304 304 304 307 308 310
244 242 241 235 232 226 221 233 249 258 257 241 226 233 235 225 217 229 240 264 279 265 224 252 259 260 275 279 287 282 289 299 303 299 300 306 310 312
250 248 246 235 240 241 225 225 241 258 272 266 258 252 252 249 234 212 224 239 268 263 217 225 253 281 275 263 278 286 287 294 299 301 300 303 305 307
256 255 255 249 245 243 224 213 232 241 236 253 264 266 260 254 253 225 209 223 243 254 219 204 234 277 288 270 267 287 290 292 295 297 298 297 301 301
245 247 251 263 261 255 246 223 234 244 227 221 233 244 247 237 236 234 225 222 225 235 219 204 233 236 247 278 279 272 275 284 289 290 289 291 295 294
241 241 246 264 269 262 253 241 247 256 209 208 221 233 235 237 234 234 241 243 244 246 231 215 227 225 237 265 273 276 270 273 276 277 271 285 288 291
244 247 256 263 268 257 254 254 248 220 205 222 234 247 246 235 234 237 244 243 258 266 255 237 231 235 234 247 259 266 279 276 264 261 266 269 266 270
277 265 270 273 281 269 254 256 268 225 220 227 236 243 249 243 239 241 246 243 257 274 270 254 241 234 243 250 251 261 257 260 266 265 270 271 269 262
253 248 203 191 217 222 223 224 229 229 236 231 227 241 252 255 256 246 244 250 248 258 272 276 260 247 244 242 250 252 255 260 262 265 267 270 268 262
232 168 210 216 218 221 218 220 221 230 231 228 226 233 248 255 259 256 250 243 247 254 258 263 270 288 288 266 236 244 249 256 263 264 261 267 273 268
187 192 213 223 227 225 226 227 227 232 233 230 237 237 242 251 252 248 245 246 248 251 252 245 240 232 251 269 268 238 244 257 264 266 261 258 267 273
227 224 232 235 230 222 225 231 238 229 228 231 234 238 238 242 248 249 248 247 249 252 252 246 234 229 235 249 263 271 257 252 254 263 271 271 269 277
246 242 239 237 238 234 234 231 231 232 230 233 238 243 240 237 247 256 261 266 266 253 250 253 253 259 259 255 268 274 273 267 258 254 260 271 278 280
256 251 249 241 240 235 236 235 235 238 237 236 240 242 241 237 242 249 252 258 263 258 262 271 277 269 243 244 260 273 284 291 285 277 266 249 244 252
267 262 257 248 243 238 236 234 235 236 239 239 239 240 236 239 243 247 251 254 259 258 263 268 271 268 261 254 259 270 275 285 294 295 285 276 269 267